Kodiak, AK

2:59 AM AKST en Noviembre 16, 2018 (GMT -0900)
Kodiak

Tiempo Historia de PADQ - Junio, 2018

Change the Weather History Date:

Miércoles, Junio 13, 2018

  Actual Average Record
Temperature  
Temperatura media 53 ° F 49 ° F  
Temperatura máxima 67 ° F 54 ° F 71 ° F (1924)
Temperatura mínima 39 ° F 44 ° F 35 ° F (1973)
Degree Days  
Grados día de calefacción 12 16  
Month to date heating degree days 186 220  
Since 1 June heating degree days 186 220  
Since 1 July heating degree days 7716 8554  
Cooling Degree Days 0 0  
Month to date cooling degree days 0 0  
Year to date cooling degree days 0 0  
Since 1 June cooling degree days 0 0  
Growing Degree Days 4 (Base 50)    
Moisture  
Punto de rocío 43 ° F    
Average Humidity 70    
Maximum Humidity 92    
Minimum Humidity 48    
Precipitación  
Precipitación 0.00 pul 0.21 pul 1.27 pul (1986)
Month to date precipitation 0.03 2.73  
Year to date precipitation 28.03 34.12  
Nieve  
Nieve 0.00 pul 0.00 pul - ()
Month to date snowfall 0.0 0.0  
Since 1 July snowfall 17.9 68.9  
Grosos de nieve 0.00 pul    
Presión al nivel del mar  
Presión al nivel del mar 29.95 pul    
Viento  
Velocidad del viento 9 mph (NO)    
Velocidad máxima del viento 14 mph    
Max Gust Speed 16 mph    
Visibilidad 10 Millas    
Eventos      
T = Trace of Precipitation, MM = Missing Value Source: NWS Daily Summary

Daily Weather History Graph

Daily Weather History Graph

Search for Another Location

Airport or City:

Astronomía

Jun. 13, 2018 Salida Puesta
Hora real 5:09 AM AKDT 11:11 PM AKDT
Crepúsculo civil 3:56 AM AKDT 12:24 AM AKDT
Crepúsculo náutico Sun does not rise Sun does not rise
Crepúsculo astronómico Sun does not rise Sun does not rise
Luna 5:43 AM AKDT (6/13) 11:01 PM AKDT (6/13)
Horas de luz 20h 27m
Horas de luz
18h 02m
Luna nueva, 0% of the Moon is Illuminated
Jun 13
Luna nueva
Jun 20
Cuarto creciente
Jun 27
Luna llena
Jul 5
Cuarto menguante
Jul 12
Nueva

Hourly Weather History & Observations

Hora (AKDT) Temp. Vientos helados Punto de rocío Humedad Presión Visibilidad Wind Dir Velocidad del viento Velocidad de ráfagas Precip Eventos Condiciones
12:53 AM 43.0 ° F 39.5 ° F 39.9 ° F 89% 30.03 pul 10.0 mi Oeste 5.8 mph - N/A   Despejado
1:53 AM 41.0 ° F 37.1 ° F 37.9 ° F 89% 30.03 pul 10.0 mi Oeste 5.8 mph - N/A   Despejado
2:53 AM 39.0 ° F 34.8 ° F 37.0 ° F 93% 30.02 pul 10.0 mi Oeste 5.8 mph - N/A   Despejado
3:53 AM 39.9 ° F 35.1 ° F 37.0 ° F 89% 30.01 pul 10.0 mi Oeste 6.9 mph - N/A   Despejado
4:53 AM 44.1 ° F 39.0 ° F 39.9 ° F 85% 30.01 pul 10.0 mi Oeste 9.2 mph - N/A   Despejado
5:53 AM 44.1 ° F 41.5 ° F 39.9 ° F 85% 30.00 pul 10.0 mi SSO 4.6 mph - N/A   Despejado
6:53 AM 51.1 ° F - 42.1 ° F 71% 29.99 pul 10.0 mi ONO 11.5 mph - N/A   Despejado
7:53 AM 54.0 ° F - 42.1 ° F 64% 29.98 pul 10.0 mi ONO 13.8 mph - N/A   Despejado
8:53 AM 55.9 ° F - 43.0 ° F 62% 29.98 pul 10.0 mi ONO 11.5 mph - N/A   Despejado
9:53 AM 60.1 ° F - 43.0 ° F 53% 29.97 pul 10.0 mi NO 10.4 mph 16.1 mph N/A   Despejado
10:53 AM 63.0 ° F - 44.1 ° F 50% 29.95 pul 10.0 mi NO 11.5 mph - N/A   Despejado
11:53 AM 64.9 ° F - 44.1 ° F 47% 29.95 pul 10.0 mi NNO 8.1 mph - N/A   Despejado
12:53 PM 60.1 ° F - 45.0 ° F 57% 29.94 pul 10.0 mi ENE 8.1 mph - N/A   Despejado
1:53 PM 60.1 ° F - 45.0 ° F 57% 29.94 pul 10.0 mi NE 8.1 mph - N/A   Despejado
2:53 PM 62.1 ° F - 44.1 ° F 52% 29.93 pul 10.0 mi ENE 8.1 mph - N/A   Despejado
3:53 PM 60.1 ° F - 45.0 ° F 57% 29.93 pul 10.0 mi Este 8.1 mph - N/A   Despejado
4:53 PM 64.0 ° F - 44.1 ° F 48% 29.92 pul 10.0 mi ENE 6.9 mph - N/A   Despejado
5:53 PM 64.9 ° F - 43.0 ° F 45% 29.92 pul 10.0 mi ESE 9.2 mph - N/A   Despejado
6:53 PM 64.0 ° F - 44.1 ° F 48% 29.91 pul 10.0 mi Este 6.9 mph - N/A   Despejado
7:53 PM 68.0 ° F - 45.0 ° F 43% 29.90 pul 10.0 mi NO 11.5 mph - N/A   Despejado
8:53 PM 66.0 ° F - 45.0 ° F 47% 29.90 pul 10.0 mi ONO 10.4 mph - N/A   Despejado
9:53 PM 63.0 ° F - 45.0 ° F 52% 29.90 pul 10.0 mi NO 11.5 mph - N/A   Despejado
10:53 PM 59.0 ° F - 45.0 ° F 60% 29.90 pul 10.0 mi ONO 11.5 mph - N/A   Despejado
11:53 PM 57.0 ° F - 44.1 ° F 62% 29.91 pul 10.0 mi ONO 11.5 mph - N/A   Despejado